INTELSAT 905 (IS-905)

Last updated on Sat Dec 13 2025 00:02:46 GMT+0000 (Coordinated Universal Time)

1 27438U 02027A 25346.08655704 .00000102 00000+0 00000+0 0 9991 2 27438 6.2844 72.0639 0002730 196.9989 65.9362 1.00273145 49489
UTC large
Height (km)
Speed (km/s)
/
Latitude / Longitude
Inclination (degrees)
Orbital Period (minutes)
Azimuth
Elevation
Range (km)
Doppler Factor

Next 0 passes for location: London (51.5072 / 0.1276)

Sorry there are no passes over London.